Zurück zum Katalog

METEOR 2-6 DEB

LostPO
NORAD 43298·DEBRIS·🇷🇺 Russia

Gestartet Sep 9, 1980 von Plesetsk Cosmodrome

Loading…

Nächste Überflüge (nächste 24 Stunden)

TLE

VeraltetSource: Space-Track

Epoche: May 5, 2025, 12:16 UTC

1 43298U 80073S   25125.51115971  .00011000  00000-0  30235-2 0  9996
2 43298  81.1953  49.3602 0019570  41.2050 319.0614 14.46813319581135

Verfolge METEOR 2-6 DEB in Echtzeit mit AllMySat

Download on the App Store